Weather History for KSYR - July, 2013

Change the Weather History Date:

Friday, July 5, 2013

  Actual Average Record
Temperature  
Mean Temperature 80 °F 71 °F  
Max Temperature 90 °F 81 °F 100 °F (1911)
Min Temperature 70 °F 60 °F 46 °F (1982)
Degree Days  
Heating Degree Days 0 0  
Month to date heating degree days 0 2  
Since 1 June heating degree days 61 63  
Since 1 July heating degree days 0 2  
Cooling Degree Days 15 6  
Month to date cooling degree days 59 30  
Year to date cooling degree days 235 173  
Since 1 June cooling degree days 183 143  
Growing Degree Days 30 (Base 50)    
Moisture  
Dew Point 71 °F    
Average Humidity 73    
Maximum Humidity 94    
Minimum Humidity 52    
Precipitation  
Precipitation 0.20 in 0.12 in 1.32 in (1951)
Month to date precipitation 0.73 0.59  
Year to date precipitation 21.47 17.83  
Snow  
Snow 0.00 in 0.00 in T in (1992)
Month to date snowfall 0.0 0.0  
Since 1 June snowfall 0.0 0.0  
Since 1 July snowfall 0.0 0.0  
Snow Depth 0.00 in    
Sea Level Pressure  
Sea Level Pressure 30.09 in    
Wind  
Wind Speed 4 mph (West)    
Max Wind Speed 22 mph    
Max Gust Speed 28 mph    
Visibility 10 miles    
Events Rain , Thunderstorm    
T = Trace of Precipitation, MM = Missing Value Source: NWS Daily Summary

Daily Weather History Graph

Daily Weather History Graph

Search for Another Location

Airport or City:

Trip Planner

Search our weather history database for the weather conditions in past years. The results will help you decide how hot, cold, wet, or windy it might be!

Date:

Astronomy

Jul. 05, 2013 Rise Set
Actual Time 5:31 AM EDT 8:46 PM EDT
Civil Twilight 4:56 AM EDT 9:21 PM EDT
Nautical Twilight 4:10 AM EDT 10:06 PM EDT
Astronomical Twilight 3:15 AM EDT 11:01 PM EDT
Moon 3:30 AM EDT (7/5) 6:38 PM EDT (7/5)
Length of Visible Light 16h 25m
Length of Day
15h 15m
Waning Crescent, 6% of the Moon is Illuminated
Jul 5
Waning Crescent
Jul 8
New
Jul 15
First Quarter
Jul 22
Full
Jul 29
Last Quarter

Hourly Weather History & Observations

Time (EDT) Temp. Heat Index Dew Point Humidity Pressure Visibility Wind Dir Wind Speed Gust Speed Precip Events Conditions
12:54 AM 75.9 °F - 71.1 °F 85% 30.12 in 10.0 mi Calm Calm - N/A   Mostly Cloudy
1:54 AM 73.0 °F - 70.0 °F 90% 30.11 in 10.0 mi Calm Calm - N/A   Scattered Clouds
2:54 AM 73.0 °F - 70.0 °F 90% 30.11 in 10.0 mi Calm Calm - N/A   Mostly Cloudy
3:54 AM 72.0 °F - 69.1 °F 91% 30.11 in 8.0 mi Calm Calm - N/A   Scattered Clouds
4:54 AM 71.1 °F - 68.0 °F 90% 30.11 in 9.0 mi Calm Calm - N/A   Mostly Cloudy
5:54 AM 72.0 °F - 69.1 °F 91% 30.12 in 9.0 mi Calm Calm - N/A   Mostly Cloudy
6:54 AM 75.0 °F - 72.0 °F 90% 30.13 in 8.0 mi Calm Calm - N/A   Mostly Cloudy
7:54 AM 79.0 °F - 71.1 °F 77% 30.13 in 10.0 mi Calm Calm - N/A   Scattered Clouds
8:43 AM 80.6 °F 84.6 °F 71.6 °F 74% 30.15 in 10.0 mi Calm Calm - N/A   Mostly Cloudy
8:54 AM 82.0 °F 86.7 °F 72.0 °F 71% 30.13 in 10.0 mi Calm Calm - N/A   Mostly Cloudy
9:03 AM 82.4 °F 87.2 °F 71.6 °F 70% 30.14 in 10.0 mi Calm Calm - N/A   Overcast
9:14 AM 82.4 °F 87.2 °F 71.6 °F 70% 30.14 in 10.0 mi Calm Calm - N/A   Overcast
9:54 AM 82.0 °F 86.3 °F 71.1 °F 69% 30.11 in 10.0 mi SSW 4.6 mph - N/A   Overcast
10:54 AM 84.0 °F 89.0 °F 71.1 °F 65% 30.11 in 10.0 mi SSW 5.8 mph - N/A   Mostly Cloudy
11:54 AM 86.0 °F 91.5 °F 71.1 °F 61% 30.10 in 10.0 mi South 6.9 mph - N/A   Mostly Cloudy
12:54 PM 88.0 °F 93.8 °F 71.1 °F 57% 30.08 in 10.0 mi WSW 8.1 mph - N/A   Mostly Cloudy
1:54 PM 90.0 °F 95.4 °F 70.0 °F 52% 30.06 in 10.0 mi SSW 8.1 mph - N/A   Mostly Cloudy
2:27 PM 87.8 °F 93.8 °F 71.6 °F 58% 30.08 in 10.0 mi Calm Calm - N/A Thunderstorm Thunderstorm
2:45 PM 87.8 °F 93.8 °F 71.6 °F 58% 30.07 in 10.0 mi WNW 9.2 mph - N/A   Overcast
2:54 PM 89.1 °F 97.0 °F 73.0 °F 59% 30.06 in 10.0 mi West 8.1 mph - N/A   Overcast
3:07 PM 87.8 °F 93.8 °F 71.6 °F 58% 30.07 in 10.0 mi NNW 10.4 mph - N/A Thunderstorm Thunderstorm
3:54 PM 79.0 °F - 71.1 °F 77% 30.06 in 10.0 mi NNW 11.5 mph 21.9 mph N/A   Mostly Cloudy
4:21 PM 78.8 °F - 71.6 °F 78% 30.08 in 10.0 mi NNE 5.8 mph - N/A Thunderstorm Thunderstorm
4:54 PM 79.0 °F - 72.0 °F 79% 30.06 in 10.0 mi NNW 4.6 mph - 0.15 in   Mostly Cloudy
5:54 PM 78.1 °F - 73.0 °F 84% 30.05 in 10.0 mi East 10.4 mph - N/A   Mostly Cloudy
6:54 PM 79.0 °F - 71.1 °F 77% 30.05 in 10.0 mi East 5.8 mph - N/A   Mostly Cloudy
7:35 PM 77.0 °F - 71.6 °F 83% 30.05 in 10.0 mi NE 3.5 mph - N/A Thunderstorm Thunderstorm
7:54 PM 77.0 °F - 72.0 °F 84% 30.05 in 10.0 mi Calm Calm - 0.00 in Rain , Thunderstorm Light Thunderstorms and Rain
8:23 PM 77.0 °F - 71.6 °F 83% 30.07 in 9.0 mi NNE 4.6 mph - 0.05 in Rain Light Rain
8:54 PM 75.9 °F - 73.0 °F 91% 30.06 in 10.0 mi North 3.5 mph - 0.05 in   Overcast
9:54 PM 75.9 °F - 73.0 °F 91% 30.08 in 10.0 mi SSE 4.6 mph - N/A   Overcast
10:54 PM 75.0 °F - 73.0 °F 94% 30.09 in 10.0 mi South 9.2 mph - N/A   Overcast
11:54 PM 75.0 °F - 72.0 °F 90% 30.09 in 10.0 mi South 3.5 mph - 0.00 in Rain Light Rain